KE4KEW-3 Weather Reports


Display with metric or nautical units.
time (UTC)temp
F
wind
direction
speed
MPH
gust
MPH
rain 1hr
in
rain 24hr
in
rain mn
in
humidity
%
barometer
mb
20260507231507 59 171 0.0 1.0 0.00 0.06 0.01 74 1010.3
20260507230008 60 201 0.0 2.0 0.00 0.06 0.01 73 1010.1
20260507224509 61 214 0.0 2.0 0.00 0.06 0.01 71 1010.0
20260507223011 62 168 1.0 3.0 0.00 0.06 0.01 69 1010.0
20260507221508 63 229 2.0 5.0 0.00 0.06 0.01 68 1009.7
20260507220015 62 169 0.0 2.0 0.00 0.06 0.01 71 1009.6
20260507214512 64 132 1.0 4.0 0.00 0.06 0.01 67 1009.4
20260507213017 64 182 2.0 7.0 0.00 0.06 0.01 69 1009.4
20260507211513 63 172 1.0 11.0 0.00 0.06 0.01 68 1009.3
20260507210024 63 195 3.0 6.0 0.00 0.06 0.01 68 1009.2
20260507204514 63 169 1.0 5.0 0.00 0.06 0.01 70 1009.5
20260507203019 64 173 1.0 4.0 0.00 0.06 0.01 69 1009.5
20260507201515 61 140 1.0 5.0 0.00 0.06 0.01 74 1009.7
20260507200021 60 233 1.0 5.0 0.00 0.06 0.01 70 1010.0
20260507194508 60 119 0.0 6.0 0.00 0.06 0.01 74 1010.1
20260507193010 61 162 2.0 6.0 0.00 0.06 0.01 70 1010.4
20260507191518 61 216 1.0 6.0 0.00 0.06 0.01 73 1010.5
20260507190005 59 206 3.0 8.0 0.00 0.06 0.01 72 1010.7
20260507184503 60 213 2.0 7.0 0.00 0.06 0.01 74 1010.8
20260507183030 62 159 2.0 4.0 0.00 0.06 0.01 72 1011.0
20260507181514 59 146 1.0 3.0 0.00 0.06 0.01 78 1011.2
20260507180011 57 67 0.0 6.0 0.00 0.06 0.01 78 1011.2
20260507174509 56 201 1.0 4.0 0.01 0.06 0.01 83 1011.4
20260507173014 55 84 1.0 2.0 0.01 0.06 0.01 80 1011.6
20260507171503 55 154 0.0 3.0 0.01 0.06 0.01 82 1011.7
20260507170019 55 184 1.0 4.0 0.01 0.06 0.01 82 1012.1
20260507164518 54 109 1.0 3.0 0.00 0.05 0.00 80 1012.2
20260507163015 54 111 0.0 2.0 0.00 0.05 0.00 82 1012.5
20260507161517 54 123 1.0 4.0 0.00 0.05 0.00 81 1012.6
20260507160012 54 122 1.0 4.0 0.00 0.05 0.00 81 1012.9
20260507154505 53 63 0.0 2.0 0.00 0.05 0.00 83 1013.1
20260507153014 53 36 0.0 2.0 0.00 0.05 0.00 81 1013.3
20260507151518 53 47 1.0 2.0 0.00 0.05 0.00 81 1013.0
20260507150017 53 113 1.0 3.0 0.00 0.05 0.00 80 1013.1
20260507144525 53 59 0.0 3.0 0.00 0.05 0.00 81 1013.0
20260507143011 53 57 1.0 3.0 0.00 0.05 0.00 78 1013.1
20260507141508 52 75 1.0 3.0 0.00 0.05 0.00 78 1013.4
20260507140008 52 77 2.0 4.0 0.00 0.05 0.00 78 1013.5
20260507134524 52 47 1.0 3.0 0.00 0.05 0.00 79 1013.6
20260507133020 52 89 0.0 3.0 0.00 0.05 0.00 81 1013.7
20260507131522 52 29 1.0 3.0 0.00 0.05 0.00 80 1013.6
20260507130027 52 30 0.0 0.0 0.00 0.05 0.00 81 1013.7
20260507124515 52 35 1.0 3.0 0.00 0.05 0.00 81 1013.7
20260507123010 52 36 1.0 3.0 0.00 0.05 0.00 81 1013.7
20260507121524 52 58 0.0 0.0 0.00 0.06 0.00 82 1013.6
20260507120023 52 58 0.0 2.0 0.00 0.06 0.00 81 1013.3
20260507114521 52 44 0.0 2.0 0.00 0.06 0.00 81 1013.4
20260507113026 52 23 0.0 2.0 0.00 0.06 0.00 83 1013.3
20260507111516 52 12 1.0 3.0 0.00 0.06 0.00 84 1013.1
20260507110012 52 41 1.0 3.0 0.00 0.06 0.00 86 1012.8
20260507104508 52 43 1.0 2.0 0.00 0.06 0.00 86 1012.7
20260507103007 52 44 1.0 3.0 0.00 0.06 0.00 86 1012.7
20260507101508 52 34 1.0 2.0 0.00 0.06 0.00 87 1012.5
20260507100023 52 53 0.0 4.0 0.00 0.06 0.00 87 1012.6
20260507094524 52 40 1.0 5.0 0.00 0.06 0.00 86 1012.5
20260507093016 52 28 2.0 4.0 0.00 0.06 0.00 86 1012.6
20260507091512 53 52 1.0 6.0 0.00 0.06 0.00 86 1012.3
20260507090011 53 57 0.0 3.0 0.00 0.06 0.00 87 1012.3
20260507084512 53 25 1.0 4.0 0.00 0.06 0.00 86 1012.4
20260507083027 54 104 1.0 7.0 0.00 0.06 0.00 87 1012.0
20260507081530 55 136 2.0 5.0 0.00 0.06 0.00 87 1012.0
20260507080023 55 37 1.0 4.0 0.00 0.06 0.00 87 1012.0
20260507074516 55 119 1.0 4.0 0.00 0.06 0.00 88 1012.0
20260507073014 56 44 1.0 4.0 0.00 0.06 0.00 88 1012.0
20260507071510 56 49 1.0 6.0 0.00 0.06 0.00 88 1011.9
20260507070011 57 36 2.0 5.0 0.00 0.06 0.00 87 1011.6
20260507064524 58 35 3.0 5.0 0.00 0.06 0.00 90 1011.5
20260507063024 59 59 1.0 3.0 0.00 0.06 0.00 90 1011.4
20260507061520 60 53 1.0 3.0 0.00 0.06 0.00 92 1011.6
20260507060018 60 68 0.0 0.0 0.00 0.06 0.00 92 1011.5
20260507054514 60 121 0.0 0.0 0.00 0.06 0.00 91 1011.7
20260507053010 60 63 0.0 1.0 0.00 0.06 0.00 92 1011.7
20260507051528 60 10 1.0 2.0 0.00 0.06 0.00 92 1011.4
20260507050029 60 329 0.0 0.0 0.00 0.06 0.00 91 1011.2
20260507044524 61 9 0.0 2.0 0.01 0.06 0.00 90 1010.6
20260507043020 61 152 1.0 2.0 0.01 0.06 0.00 89 1010.0
20260507041536 62 223 0.0 2.0 0.01 0.06 0.00 88 1011.2
20260507040016 62 352 0.0 3.0 0.01 0.06 0.00 88 1011.6
20260507034528 63 252 1.0 4.0 0.00 0.05 0.05 86 1011.6
20260507033032 62 226 1.0 3.0 0.00 0.05 0.05 88 1011.5
20260507031523 63 180 0.0 3.0 0.02 0.05 0.05 88 1011.4
20260507030024 63 300 0.0 0.0 0.04 0.05 0.05 88 1011.4
20260507024521 64 14 0.0 0.0 0.04 0.05 0.05 86 1011.1
20260507023021 65 315 0.0 2.0 0.04 0.05 0.05 85 1011.1
20260507021516 67 290 1.0 4.0 0.02 0.03 0.03 80 1010.9
20260507020028 66 291 0.0 1.0 0.00 0.01 0.01 79 1010.9
20260507014516 67 217 0.0 0.0 0.00 0.01 0.01 77 1010.4
20260507013017 67 217 1.0 3.0 0.00 0.01 0.01 75 1010.2
20260507011506 68 213 0.0 2.0 0.00 0.01 0.01 73 1010.3
20260507010003 69 213 0.0 3.0 0.00 0.01 0.01 72 1010.6
20260507004521 69 247 2.0 4.0 0.00 0.01 0.01 72 1010.8
20260507003018 69 249 3.0 5.0 0.00 0.01 0.01 71 1010.7
20260507001514 69 246 2.0 6.0 0.00 0.01 0.01 71 1010.6
20260507000022 70 264 3.0 8.0 0.00 0.01 0.01 71 1010.4
20260506234506 70 219 2.0 5.0 0.00 0.01 0.01 71 1010.3
20260506233006 71 178 3.0 7.0 0.00 0.01 0.01 70 1010.1